Location: Carnetin
(48.9010°N, 2.7059°E)
Time: 19:31:53
(UTC+00:00)

SL-8 R/B - Pass Details

Date: 24 October 2021
Orbit: 656 x 667 km, 48.4° (Epoch: 07 December)

Event Time Altitude Azimuth Distance (km) Brightness Sun altitude
Rises 17:45:29 0° 254° (WSW) 2,979 9.0 -11.0°
Reaches altitude 10° 17:47:49 10° 253° (WSW) 2,070 7.7 -11.4°
Maximum altitude 17:52:35 77° 169° (SSE) 681 3.7 -12.2°
Enters shadow 17:56:02 19° 85° (E) 1,570 5.0 -12.7°
